{"data":{"norad_id":52263,"epoch":"2026-09-19T16:21:16.762464Z","epoch_age_seconds":125778,"freshness":"FRESH","line1":"1 52263U 22041C   26262.68144401  .00000186  00000+0  16976-4 0  9990","line2":"2 52263  53.1610 311.4566 0001387  77.9947 282.1211 15.33549487243739","mean_motion":15.33549487,"eccentricity":0.0001387,"inclination_deg":53.161,"raan_deg":311.4566,"arg_perigee_deg":77.9947,"mean_anomaly_deg":282.1211,"bstar":1.6976e-5,"rev_number":24373,"period_min":93.89980644296,"perigee_km":464.28313700676,"apogee_km":466.181487654,"semimajor_km":6843.3693123304,"source":"CELESTRAK","updated_at":"2026-09-20T09:00:39.993571Z"}}